Probability
0 0 0 3 0 0 0 0 0 0 0 0 0 3 3 6 6 3 6 6 13 19 19 19 19 26 32 35 32 29 26 23 23 26 23 26 23 29 29 19 13 16 23
0 0 0 0 0 0 0 0 0 0 0 0 0 3 3 6 3 0 3 3 6 13 6 13 16 16 19 29 29 26 26 23 23 23 29 19 16 19 19 13 6 13 16
0 0 0 0 0 0 0 0 0 0 0 0 0 0 3 0 3 0 3 6 3 6 16 13 10 13 19 19 19 23 26 26 26 23 26 16 13 13 10 6 6 10 6
0 0 0 0 0 0 0 0 0 0 0 0 0 3 0 3 3 3 6 3 3 6 6 3 13 13 16 19 16 19 23 23 19 16 13 13 10 10 10 10 10 13 10
0 0 0 0 0 0 0 0 0 0 0 3 0 0 0 6 6 0 3 3 6 6 6 3 13 13 19 19 19 16 13 13 10 10 10 10 13 13 6 13 13 13 13
0 0 0 0 0 0 0 0 0 0 0 0 0 0 0 0 3 3 3 3 3 6 6 3 10 6 6 13 16 16 13 6 6 6 6 10 13 16 16 19 10 16 16
0 0 0 0 0 3 0 0 0 0 0 0 0 0 0 0 0 0 0 0 0 3 3 0 6 10 6 0 6 6 13 13 6 6 6 6 10 13 16 19 16 13 16
0 0 0 0 0 3 3 0 0 0 0 0 0 0 0 0 0 0 0 0 0 0 0 0 0 3 3 3 0 3 10 10 10 6 6 6 6 13 13 10 16 16 16
0 0 0 0 0 0 3 0 3 0 0 0 0 0 0 0 0 0 0 0 0 0 0 0 0 0 0 3 3 0 0 3 0 3 3 6 3 3 6 6 6 6 6
0 0 0 0 0 0 0 0 0 0 0 0 0 0 0 0 0 0 0 0 0 0 0 0 0 0 0 3 0 0 0 0 3 0 0 0 0 0 0 6 3 3 0
0 0 0 0 0 0 0 0 0 0 0 0 0 0 0 0 0 0 0 0 0 0 0 0 0 3 3 6 3 0 0 0 0 0 0 0 0 0 0 0 0 3 0
0 0 0 0 0 0 0 0 0 0 0 0 0 0 0 0 0 0 0 0 0 0 0 3 3 3 3 3 0 0 0 0 0 0 0 0 0 0 0 0 0 0 0
0 0 0 0 0 0 0 0 0 0 0 0 0 0 0 0 0 0 0 0 0 0 0 3 3 3 3 3 3 0 0 0 0 0 0 0 0 0 0 0 0 0 0
0 0 0 0 0 0 0 0 0 0 0 0 0 0 0 0 3 3 0 0 0 0 0 0 3 3 3 3 3 0 0 0 0 0 0 0 0 0 0 0 0 0 0
0 0 0 0 0 0 0 0 0 0 0 0 0 0 0 0 0 0 0 0 0 0 0 0 3 0 0 3 0 0 0 0 0 0 0 0 0 0 0 0 0 0 0
0 0 3 3 3 3 0 0 0 0 0 0 0 0 0 0 0 0 0 0 0 0 0 0 0 0 0 0 0 3 0 0 0 0 0 0 0 0 0 0 0 0 0
0 0 3 3 3 3 3 0 0 0 0 0 0 0 0 0 0 0 0 0 0 0 0 0 0 0 0 0 0 0 0 0 0 0 0 0 0 0 0 0 0 0 0
0 0 0 0 3 3 3 0 0 0 0 0 0 0 0 0 0 0 0 0 0 0 0 0 0 0 0 0 0 0 0 0 0 0 0 0 0 0 0 0 0 0 0
0 0 0 3 3 3 0 0 0 0 0 0 0 0 0 0 0 0 0 0 0 0 0 0 0 0 0 0 0 0 0 0 0 0 0 0 0 0 0 0 0 0 0
0 0 0 3 0 0 0 0 0 0 0 0 0 0 0 0 0 0 0 0 0 0 0 0 0 0 0 0 0 0 0 0 0 0 0 0 0 0 0 0 0 0 0
0 0 0 3 3 3 0 0 0 0 0 0 0 0 0 0 0 0 0 0 0 0 0 0 0 0 0 0 0 0 0 0 0 0 0 0 0 0 0 0 0 0 0
0 3 3 3 3 0 0 0 0 0 0 0 0 0 0 0 0 0 0 0 0 0 0 0 0 0 0 0 0 0 0 0 0 0 0 0 0 0 0 0 0 0 0
3 3 3 3 0 0 0 0 0 0 0 0 0 0 0 0 0 0 0 0 0 0 0 0 0 0 0 0 0 0 0 0 0 0 0 0 0 0 0 0 0 0 0
0 0 0 0 0 0 0 0 0 0 0 0 0 0 0 0 0 0 0 0 0 0 0 0 0 0 0 0 0 0 0 0 0 0 0 0 0 0 0 0 0 0 0
0 0 0 0 0 0 0 0 0 0 0 0 0 0 0 0 0 0 0 0 0 0 0 0 0 0 0 0 0 0 0 0 0 0 0 0 0 0 0 0 0 0 0
0 0 0 0 0 0 0 0 0 0 0 0 0 0 0 0 0 0 0 0 0 0 0 0 0 0 0 0 0 0 0 0 0 0 0 0 0 0 0 0 0 0 0
Height
5887 5886 5886 5886 5886 5885 5885 5884 5884 5883 5882 5882 5881 5880 5880 5879 5878 5878 5877 5877 5877 5876 5876 5875 5875 5875 5875 5874 5874 5874 5874 5874 5874 5874 5874 5874 5874 5874 5874 5874 5875 5875 5876
5886 5886 5886 5886 5885 5885 5884 5884 5883 5882 5882 5881 5880 5880 5879 5878 5878 5877 5876 5876 5875 5875 5874 5874 5873 5873 5873 5872 5872 5872 5872 5871 5871 5871 5871 5871 5871 5871 5871 5871 5871 5872 5872
5885 5885 5885 5885 5884 5884 5884 5883 5882 5882 5881 5880 5879 5879 5878 5877 5876 5876 5875 5874 5874 5874 5873 5872 5872 5871 5870 5870 5870 5870 5869 5869 5869 5868 5868 5867 5867 5867 5867 5868 5868 5868 5868
5884 5884 5884 5884 5884 5883 5883 5883 5882 5881 5880 5879 5879 5878 5877 5877 5876 5874 5874 5873 5873 5872 5872 5871 5870 5869 5868 5868 5867 5867 5867 5866 5866 5865 5865 5864 5864 5864 5864 5864 5864 5864 5865
5884 5883 5883 5883 5883 5882 5882 5882 5881 5880 5880 5879 5878 5877 5877 5876 5875 5874 5873 5873 5872 5871 5870 5869 5868 5867 5866 5866 5865 5865 5864 5864 5863 5862 5862 5861 5861 5860 5860 5860 5860 5860 5861
5883 5882 5882 5882 5882 5882 5881 5881 5880 5880 5879 5878 5878 5877 5876 5876 5875 5874 5873 5872 5871 5870 5869 5868 5866 5865 5864 5864 5863 5862 5862 5861 5860 5859 5859 5858 5857 5856 5856 5856 5856 5857 5857
5881 5881 5881 5881 5881 5880 5880 5880 5879 5879 5878 5878 5877 5876 5876 5875 5874 5873 5872 5871 5870 5869 5868 5866 5865 5864 5862 5862 5861 5860 5859 5859 5858 5857 5856 5855 5853 5851 5850 5851 5852 5853 5853
5880 5880 5880 5880 5879 5879 5879 5879 5878 5878 5877 5877 5876 5876 5875 5875 5873 5872 5871 5870 5869 5868 5866 5865 5863 5862 5861 5860 5859 5858 5857 5856 5855 5854 5853 5852 5850 5847 5846 5847 5849 5850 5850
5879 5879 5879 5879 5878 5878 5878 5878 5877 5877 5877 5876 5875 5875 5874 5873 5872 5871 5870 5869 5868 5866 5865 5863 5862 5861 5859 5858 5857 5856 5855 5854 5853 5852 5851 5849 5847 5846 5845 5846 5847 5847 5846
5878 5878 5878 5878 5877 5877 5877 5876 5876 5876 5875 5875 5874 5873 5873 5872 5871 5870 5869 5868 5866 5865 5864 5862 5861 5859 5857 5856 5856 5855 5854 5853 5851 5850 5848 5847 5846 5845 5844 5844 5844 5843 5843
5876 5876 5876 5876 5876 5876 5876 5875 5875 5874 5874 5874 5873 5872 5871 5870 5869 5868 5867 5866 5865 5864 5863 5861 5859 5857 5856 5855 5854 5853 5852 5850 5849 5847 5846 5844 5843 5842 5842 5840 5840 5839 5839
5875 5875 5875 5875 5874 5874 5874 5874 5873 5873 5872 5872 5871 5871 5870 5869 5868 5867 5866 5865 5864 5863 5861 5860 5858 5856 5855 5853 5852 5851 5849 5848 5846 5845 5843 5842 5840 5839 5838 5837 5836 5835 5834
5873 5873 5873 5873 5873 5873 5872 5872 5872 5871 5871 5870 5870 5869 5868 5867 5866 5865 5864 5863 5862 5861 5859 5858 5856 5855 5853 5851 5850 5848 5847 5845 5844 5842 5840 5839 5837 5836 5834 5833 5832 5830 5829
5871 5871 5871 5871 5871 5871 5870 5870 5870 5870 5869 5869 5868 5867 5866 5865 5864 5863 5862 5861 5860 5859 5857 5856 5854 5853 5851 5850 5848 5846 5844 5843 5841 5839 5837 5836 5834 5832 5831 5829 5827 5826 5824
5868 5868 5868 5868 5868 5868 5868 5868 5868 5868 5867 5867 5866 5865 5864 5863 5863 5861 5860 5859 5858 5857 5855 5854 5852 5850 5849 5847 5845 5843 5841 5839 5838 5836 5834 5832 5830 5828 5826 5824 5822 5820 5819
5866 5866 5866 5866 5866 5866 5866 5866 5865 5865 5865 5864 5864 5863 5862 5861 5860 5859 5858 5857 5855 5854 5853 5851 5849 5848 5846 5844 5842 5840 5838 5836 5834 5832 5830 5828 5826 5824 5821 5819 5817 5815 5812
5863 5863 5863 5863 5863 5863 5863 5863 5862 5862 5862 5861 5861 5860 5859 5858 5857 5856 5855 5854 5852 5851 5850 5848 5846 5844 5842 5841 5838 5836 5834 5832 5830 5828 5825 5823 5821 5818 5816 5813 5811 5808 5806
5859 5860 5860 5860 5860 5860 5860 5859 5859 5859 5859 5858 5858 5857 5856 5855 5854 5853 5852 5851 5849 5848 5846 5844 5842 5840 5839 5837 5834 5832 5830 5827 5825 5823 5820 5818 5815 5812 5809 5806 5804 5801 5798
5856 5856 5856 5856 5856 5856 5856 5856 5856 5856 5855 5855 5854 5853 5852 5851 5851 5849 5848 5847 5845 5844 5842 5840 5838 5836 5834 5832 5830 5827 5825 5822 5819 5817 5814 5811 5808 5805 5802 5799 5796 5792 5789
5852 5852 5852 5853 5853 5852 5852 5852 5852 5852 5852 5851 5850 5849 5849 5848 5847 5846 5844 5843 5841 5840 5838 5836 5834 5831 5829 5827 5824 5822 5819 5816 5813 5810 5807 5804 5801 5797 5794 5790 5787 5783 5779
5848 5848 5848 5849 5849 5848 5849 5849 5848 5848 5847 5847 5846 5845 5844 5843 5842 5841 5840 5838 5837 5835 5833 5831 5829 5826 5824 5821 5818 5815 5813 5810 5806 5803 5800 5796 5793 5789 5785 5781 5777 5772 5768
5844 5844 5844 5844 5844 5844 5844 5844 5844 5844 5843 5842 5841 5841 5840 5839 5838 5836 5835 5833 5832 5830 5828 5825 5823 5821 5818 5815 5812 5809 5805 5802 5799 5796 5792 5788 5783 5779 5774 5770 5766 5761 5756
5840 5840 5840 5840 5840 5840 5840 5839 5839 5839 5838 5837 5836 5835 5834 5833 5832 5831 5829 5828 5826 5824 5822 5819 5817 5814 5811 5808 5805 5802 5798 5794 5790 5786 5782 5778 5774 5769 5764 5759 5754 5749 5744
5835 5835 5835 5835 5835 5835 5835 5835 5834 5833 5833 5831 5830 5829 5828 5828 5826 5825 5823 5822 5820 5817 5815 5812 5810 5807 5804 5800 5797 5794 5790 5786 5781 5777 5772 5768 5763 5758 5753 5747 5741 5736 5731
5830 5831 5831 5830 5830 5830 5830 5830 5829 5828 5827 5825 5824 5823 5822 5821 5820 5818 5817 5815 5813 5811 5808 5805 5802 5799 5796 5792 5788 5785 5781 5777 5772 5768 5762 5758 5752 5747 5741 5735 5729 5723 5718
5825 5826 5826 5826 5826 5826 5825 5824 5823 5822 5821 5819 5818 5817 5816 5815 5814 5812 5810 5808 5806 5803 5800 5797 5794 5791 5787 5783 5780 5775 5771 5767 5762 5757 5752 5746 5741 5735 5730 5724 5717 5711 5706
Wind_Speed
3 3 3 3 2 2 2 2 3 3 2 2 2 2 2 2 3 4 4 5 5 6 7 8 9 10 11 11 11 12 12 13 13 13 14 14 14 14 14 14 16 17 17
4 4 4 3 3 3 2 3 3 3 3 3 3 3 2 2 2 3 4 4 4 5 6 7 8 9 10 11 12 12 12 13 13 13 14 14 14 14 14 14 15 16 18
4 4 3 3 3 3 3 3 3 4 3 3 3 3 3 3 2 2 3 4 4 5 6 7 8 9 10 10 11 11 12 12 13 13 13 13 13 14 14 15 15 16 17
4 4 3 3 3 3 3 3 3 3 3 3 3 2 2 2 2 2 2 4 4 5 6 7 7 8 9 9 10 10 11 12 12 13 13 13 14 14 15 15 16 16 17
4 3 3 3 3 3 3 3 3 3 3 3 3 2 2 2 3 3 3 3 4 5 6 6 7 7 8 9 9 10 11 12 12 13 13 13 14 15 16 16 16 16 17
4 4 4 4 4 4 4 4 3 3 3 3 3 2 2 3 3 3 4 4 5 6 6 7 7 7 8 8 8 9 10 11 11 12 12 14 14 15 17 17 17 16 16
4 4 4 4 4 4 4 4 3 3 3 3 3 3 3 4 4 4 4 5 5 6 6 7 7 7 8 8 9 9 9 10 11 11 12 13 14 15 16 17 16 17 17
5 4 4 4 4 4 4 4 4 4 4 4 4 4 4 4 4 4 5 5 6 6 7 7 7 7 8 8 9 9 10 11 12 12 12 13 14 14 15 16 16 17 18
5 4 4 4 4 4 4 4 4 5 5 4 4 4 5 5 5 5 5 6 6 6 7 7 6 7 8 8 9 9 10 11 12 12 12 13 13 14 14 15 16 18 19
5 5 4 5 5 4 5 5 5 5 5 5 5 5 5 5 6 6 6 6 7 6 7 7 7 7 8 9 9 10 10 12 13 13 13 13 14 14 15 17 18 19 20
6 6 6 6 5 5 5 5 5 5 5 5 5 6 6 6 6 6 7 7 7 7 7 8 7 8 9 9 10 10 11 12 13 13 13 14 14 15 16 17 18 19 20
7 7 7 6 6 6 6 5 5 6 6 6 6 6 6 6 7 7 7 7 7 8 8 8 9 9 9 10 10 11 12 12 13 14 14 15 16 16 17 19 19 20 20
9 8 8 7 7 7 7 6 5 6 6 6 6 6 7 7 7 7 7 7 8 8 9 9 9 10 10 10 10 11 12 13 14 15 16 16 17 17 18 19 20 21 22
10 10 10 9 9 8 8 8 7 7 7 7 7 7 7 7 7 8 8 8 9 9 10 10 11 11 11 12 12 12 13 14 15 16 17 17 18 18 19 20 21 22 23
10 11 11 10 9 9 9 9 8 8 8 8 8 7 7 8 8 8 9 9 10 10 11 11 12 12 13 13 14 15 15 16 16 16 17 18 19 19 21 22 23 24 25
12 11 11 11 11 10 10 10 10 9 9 9 9 8 8 9 9 9 10 10 11 11 12 12 13 13 14 15 16 16 17 17 18 18 19 20 20 21 22 23 25 26 27
13 12 12 12 12 11 11 11 11 11 10 10 10 10 10 10 11 11 11 11 12 13 13 14 14 15 16 16 17 17 18 19 20 20 21 22 23 24 25 26 27 28 29
14 14 14 13 13 12 11 11 11 11 11 12 12 12 12 12 12 12 12 12 13 14 14 15 16 16 17 18 18 19 20 21 21 22 23 24 25 26 27 29 30 31 32
14 14 14 14 14 14 13 13 13 13 13 13 13 13 13 13 13 14 14 14 14 14 15 16 17 18 19 20 20 21 22 23 23 24 26 27 28 29 30 31 32 33 34
15 14 13 14 14 14 14 14 14 14 15 15 15 14 14 14 14 15 15 15 16 17 18 18 19 20 21 22 23 23 24 25 26 27 28 29 30 32 33 34 35 36 37
15 15 14 14 14 14 14 15 15 16 16 16 16 16 16 16 17 17 17 17 18 19 20 21 21 22 23 24 25 26 27 28 28 29 30 31 33 34 35 36 37 38 39
15 15 15 15 15 15 16 16 16 16 16 17 17 18 17 18 18 19 19 20 21 22 22 23 23 24 25 25 26 27 28 29 31 32 33 35 36 37 38 39 40 41 42
16 16 15 16 16 16 16 17 17 17 17 18 19 19 19 19 20 21 21 22 23 23 24 25 25 26 26 27 28 29 30 32 33 35 35 37 38 39 40 41 42 43 43
17 16 16 16 17 17 16 17 17 18 19 20 20 20 21 21 21 22 22 23 24 24 25 26 27 28 29 29 31 32 33 34 35 37 38 39 40 41 42 43 44 44 44
17 17 17 17 17 16 17 17 18 19 20 21 21 22 22 22 22 23 24 24 25 26 27 29 29 30 31 32 33 34 35 36 37 38 39 40 41 43 43 44 44 44 44
18 18 17 17 17 18 19 19 20 20 20 21 22 22 22 22 23 24 25 26 27 28 29 30 31 32 33 34 35 36 37 38 39 40 41 42 43 44 44 44 45 45 46
Wind_Direction
272 279 277 270 273 278 291 299 313 316 318 322 320 303 302 293 280 272 265 262 263 264 263 260 262 260 257 259 262 262 262 264 263 260 260 261 262 261 257 258 254 251 250
273 274 272 263 261 269 285 298 305 303 302 300 299 291 285 293 290 283 273 271 266 273 273 270 269 266 263 263 263 263 265 267 266 263 261 262 263 262 260 259 260 257 256
265 265 264 261 260 264 276 294 301 297 296 298 305 296 282 289 303 291 285 276 275 276 278 279 275 272 268 265 265 264 265 266 269 266 265 267 267 267 265 260 262 263 262
266 265 265 259 264 266 274 289 301 298 294 304 310 316 311 302 306 307 275 275 275 278 281 280 277 275 271 268 267 264 266 267 271 269 267 266 265 265 266 267 268 269 267
262 263 264 260 260 269 277 284 291 296 298 304 311 318 312 306 307 313 303 289 277 281 284 286 286 280 277 274 270 266 269 269 271 272 269 266 264 265 264 266 269 271 269
256 259 260 258 259 267 274 276 279 283 285 292 300 309 308 303 305 309 305 297 289 287 287 291 291 287 283 282 282 278 272 273 274 271 269 266 266 267 265 265 266 268 270
256 261 260 260 265 267 266 262 267 275 281 297 298 297 295 299 299 300 297 296 295 294 295 298 296 292 289 289 286 286 283 283 280 277 279 277 278 272 268 266 266 267 270
256 259 262 266 267 265 264 265 265 271 278 286 293 295 295 295 294 293 296 295 294 295 300 304 301 298 294 292 289 287 289 288 285 283 285 285 284 281 270 268 268 270 271
251 257 264 268 273 269 268 269 268 274 276 284 288 292 299 299 296 295 296 297 297 298 302 300 295 290 289 292 290 289 291 291 289 289 290 290 287 285 279 275 274 274 275
251 262 268 267 272 272 270 274 274 274 274 278 286 293 295 295 297 293 292 296 299 299 302 303 299 298 292 293 292 291 293 296 296 292 290 289 288 286 283 282 279 277 276
253 259 265 266 267 271 273 277 276 275 274 277 289 295 293 293 294 293 291 291 293 295 301 308 305 303 303 299 295 295 296 298 296 291 290 288 287 285 284 283 283 282 280
254 255 259 265 263 268 275 278 277 277 278 280 288 294 294 295 293 291 292 293 296 299 302 306 307 307 306 304 302 300 299 300 300 298 294 291 289 287 286 285 284 283 283
259 255 256 262 265 267 271 277 279 282 282 282 286 292 293 294 294 293 292 294 299 301 303 305 307 310 308 305 305 306 305 304 303 301 299 296 295 293 290 290 289 288 287
262 260 259 264 266 268 269 273 275 279 283 283 284 288 292 296 296 296 295 295 297 299 302 304 306 306 308 306 305 305 305 304 302 302 302 300 297 296 296 294 293 292 289
261 262 260 261 262 263 266 267 271 274 279 284 287 288 291 293 294 294 294 294 297 300 300 301 302 302 304 305 305 304 303 303 302 301 301 301 300 298 296 296 294 293 291
257 260 262 263 262 263 263 266 269 273 276 283 288 290 292 293 293 295 294 294 295 297 298 299 301 302 302 304 305 305 305 305 305 304 302 301 301 301 301 298 297 296 295
256 258 259 261 262 263 263 265 271 275 276 279 282 285 287 292 292 292 292 292 294 297 300 301 303 304 304 303 304 304 303 303 303 303 303 302 302 302 302 302 301 298 296
255 257 258 259 259 261 264 265 269 273 274 278 281 283 285 288 288 289 291 292 295 297 300 302 303 304 304 303 301 302 302 302 302 302 302 301 301 301 300 300 300 299 298
258 259 260 259 260 260 261 264 266 270 274 277 280 283 286 288 287 288 290 291 293 294 297 299 300 301 302 303 303 301 300 300 300 300 300 300 300 300 300 300 299 298 298
260 262 261 263 260 259 260 264 266 269 273 275 278 280 283 285 287 290 293 293 295 295 296 298 300 300 301 302 302 301 300 299 300 301 301 301 300 300 300 300 299 299 299
260 262 262 264 265 264 263 264 266 270 273 275 277 279 280 283 286 288 290 292 294 296 296 296 298 299 301 301 301 301 300 300 301 301 301 301 301 301 301 301 300 299 299
261 265 264 265 267 267 265 265 267 270 273 276 278 279 280 283 285 287 289 291 292 294 296 297 297 298 300 301 301 301 301 301 301 301 300 300 301 301 301 301 301 300 299
261 265 266 266 266 267 268 268 268 271 275 278 280 280 281 283 286 288 289 291 293 294 296 297 298 298 299 300 301 301 300 300 300 300 301 301 301 301 302 302 302 301 300
262 265 266 267 266 267 269 271 270 272 275 278 280 281 281 282 285 288 290 291 293 295 296 297 299 299 299 300 301 301 301 301 301 301 302 302 302 302 302 303 302 301 300
261 265 268 267 267 268 272 274 275 278 280 282 281 280 279 281 285 288 290 292 293 295 296 297 299 299 299 300 301 301 301 302 303 303 304 303 303 303 303 303 302 301 301
259 264 268 268 268 270 272 276 279 281 284 284 283 283 282 283 286 288 291 292 294 295 297 298 298 299 299 300 301 302 303 303 304 304 304 304 304 303 303 303 302 301 301